[[{"header":{"parameterUnit":"m.s-1","parameterCategory":1,"la1":30.2991,"la2":30.254,"lo1":-89.0895,"lo2":-89.0444,"dy":0.0017,"dx":0.0017,"nx":28,"ny":28,"refTime":"2025-07-10T09:00:00:Z","depth":0,"parameterNumber":2,"parameterNumberName":"U-component_of_WINDS"},"data":[0,0,0,0,0,0,0,0,0,0,0,0,0,0,0,0,0,0,0,0,0,0,0,0,0,0,0,0,0,0,0,0,0,0,0,0,0,0,0,0,0,0,0,0,0,0,0,0,0,0,0,0,0,0,0,0,0,0,3.4341,3.4342,0,3.4422,3.4423,3.4424,3.4406,3.4405,3.4403,3.4402,3.4493,3.4496,3.45,0,0,0,0,0,0,0,0,0,0,0,0,0,3.4181,3.4184,3.4341,3.4342,3.4343,3.4422,3.4423,3.4424,3.4406,3.4405,3.4403,3.4401,3.4491,3.4496,3.4501,0,0,0,0,0,0,0,0,0,0,0,0,0,3.4255,3.4185,3.4341,3.4344,3.4345,3.4422,3.4423,3.4424,3.4407,3.4404,3.4402,3.44,3.449,3.4496,3.4501,3.4583,0,0,3.4519,3.4521,0,0,0,0,0,0,0,0,3.4251,3.4261,3.4342,3.4344,3.4345,3.4401,3.44,3.4478,3.4407,3.4384,3.4402,3.4399,3.4465,3.4472,3.4493,3.4587,3.4591,3.4519,3.4523,3.4525,3.4527,0,0,0,0,0,0,0,3.4246,3.4258,3.4373,3.4344,3.4345,3.4344,3.4352,3.4415,3.4436,3.4385,3.4384,3.4394,3.4465,3.4487,3.4495,3.4593,3.4519,3.4524,3.4528,3.453,3.4762,3.4765,0,0,0,0,0,0,3.4238,3.4253,3.4371,3.4376,3.4291,3.4349,3.4357,3.4386,3.4436,3.4441,3.4396,3.4392,3.4479,3.4488,3.4498,3.46,3.4525,3.4531,3.4534,3.4759,3.4763,3.4766,0,0,0,0,0,0,3.4235,3.4249,3.4368,3.4314,3.4329,3.4354,3.4386,3.4389,3.4411,3.4443,3.4448,3.4414,3.4477,3.449,3.4562,3.4603,3.4533,3.4539,3.4756,3.476,3.4764,3.4802,0,0,0,0,0,0,3.423,3.4248,3.4277,3.4315,3.4332,3.4428,3.4388,3.4392,3.442,3.4417,3.4461,3.4467,3.4476,3.4554,3.4568,3.4609,3.4543,3.4753,3.4758,3.4763,3.4798,3.4807,3.4815,0,0,0,0,0,3.4225,3.4286,3.4278,3.4293,3.4368,3.443,3.444,3.4448,3.4423,3.4454,3.4475,3.4465,3.4595,3.4561,3.4577,3.4621,3.475,3.4757,3.4762,3.4794,3.4805,3.4815,0,0,0,0,0,0,3.4254,3.4291,3.4283,3.4357,3.439,3.4427,3.4466,3.4459,3.4502,3.4498,3.4508,3.4518,3.4592,3.4614,3.4575,3.4705,3.467,3.4679,3.4688,3.4699,3.4708,3.4703,3.4548,0,0,0,0,0,3.4269,3.4313,3.4343,3.4406,3.4423,3.4442,3.4469,3.4471,3.4507,3.4522,3.4548,3.4586,3.4636,3.4668,3.4715,3.48,3.4812,3.4838,3.4847,3.4854,3.4863,3.4913,3.4926,3.4785,3.4785,3.4785,0,0,3.4301,3.4326,3.4354,3.4413,3.4439,3.4488,3.4454,3.4506,3.4543,3.4531,3.4601,3.4622,3.4665,3.4744,3.478,3.4764,3.4904,3.4862,3.4867,3.4873,3.4921,3.4934,3.4946,3.479,3.4789,3.4788,0,0,3.4384,3.4406,3.4462,3.4488,3.4527,3.4539,3.4553,3.4591,3.4603,3.4673,3.4665,3.4711,3.4795,3.4827,3.4855,3.4951,3.4945,3.4966,3.5014,3.5062,3.5073,3.5083,3.5121,3.5134,3.4975,3.4975,3.4975,0,3.442,3.4489,3.4492,3.4546,3.4574,3.4562,3.4621,3.4647,3.4701,3.4722,3.4702,3.4809,3.4837,3.4925,3.4949,3.497,3.4989,3.4962,3.5071,3.5081,3.509,3.5127,3.5141,3.4977,3.4977,3.4977,3.4977,0,3.4533,3.4582,3.4623,3.4673,3.4705,3.4761,3.4776,3.4809,3.4809,3.4824,3.4898,3.493,3.4986,3.5006,3.5007,3.5096,3.5085,3.5068,3.5034,3.5106,3.5141,3.5154,3.4981,3.498,3.4979,3.4979,0,0,3.4639,3.4689,3.4704,3.4728,3.477,3.481,3.4867,3.4918,3.4948,3.4985,3.5036,3.5108,3.5093,3.5124,3.5129,3.5171,3.525,3.5149,3.515,3.5169,3.5353,3.5368,3.5384,3.5244,3.5247,3.5249,3.5351,0,3.4728,3.4826,3.4831,3.4921,3.4968,3.4958,3.5008,3.5042,3.5058,3.5103,3.5122,3.5174,3.5148,3.5167,3.5208,3.5231,3.5287,3.5223,3.5296,3.5298,3.5288,3.5401,3.5417,3.5511,3.5364,3.5366,3.5368,0,3.4846,3.4885,3.498,3.5017,3.5037,3.5082,3.5131,3.5172,3.5212,3.5221,3.5255,3.5255,3.5317,3.5278,3.5367,3.5323,3.5353,3.5369,3.5373,3.5383,3.534,3.5418,3.5541,3.5557,3.5388,3.5387,3.5385,0,3.4918,3.4995,3.5062,3.5082,3.5126,3.5158,3.5179,3.5215,3.5246,3.529,3.5311,3.5362,3.5391,3.5432,3.5446,3.5416,3.5535,3.5497,3.5548,3.5548,3.5576,3.5575,3.571,3.559,3.559,3.5589,3.5589,0,3.502,3.5079,3.5095,3.5136,3.5203,3.5209,3.5276,3.5295,3.5328,3.5376,3.537,3.5416,3.543,3.548,3.5492,3.5565,3.5577,3.5589,3.5593,3.5592,3.5591,3.5614,3.5609,3.5593,3.5592,3.5592,3.5591,0,3.5113,3.5125,3.5198,3.5233,3.5244,3.5292,3.5324,3.5366,3.5381,3.5442,3.5457,3.5481,3.5539,3.5557,3.5627,3.5635,3.5722,3.5718,3.5708,3.571,3.5761,3.5757,3.5918,3.5942,3.5803,3.5804,3.5805,0,3.5178,3.5223,3.5263,3.5294,3.5315,3.5364,3.5395,3.5403,3.5437,3.5486,3.5523,3.5579,3.5625,3.5718,3.5745,3.5799,3.5798,3.5851,3.5807,3.5806,3.5804,3.5802,3.5808,3.5861,3.5862,3.5863,3.5864,0,3.5295,3.5299,3.5343,3.539,3.5427,3.5465,3.5502,3.5528,3.5542,3.558,3.5638,3.5673,3.5744,3.5802,3.5857,3.5882,3.5878,3.5877,3.5893,3.5894,3.5888,3.5896,3.5735,3.5874,3.5873,3.5873,3.5872,3.5872,3.5379,3.5419,3.5454,3.5504,3.5532,3.5567,3.5608,3.5628,3.5675,3.5732,3.5734,3.5798,3.5838,3.5911,3.5939,3.5992,3.5977,3.5998,3.6004,3.601,3.6016,3.5877,3.6001,3.6001,3.6001,3.6001,3.6,0,3.5498,3.552,3.5565,3.5616,3.5657,3.5644,3.5684,3.572,3.5775,3.5811,3.5856,3.5924,3.598,3.6011,3.6067,3.6104,3.6103,3.6119,3.6118,3.6125,3.6024,3.6007,3.6118,3.6118,3.6118,3.6118,3.6118,3.6118,3.5565,3.5634,3.5642,3.5726,3.5748,3.5808,3.5833,3.5866,3.5895,3.5971,3.6016,3.6034,3.607,3.6129,3.6181,3.6189,3.6212,3.623,3.6237,3.6143,3.6131,3.612,3.6104,3.6234,3.6234,3.6333,3.6334,3.6335]},{"header":{"parameterUnit":"m.s-1","parameterCategory":1,"la1":30.2991,"la2":30.254,"lo1":-89.0895,"lo2":-89.0444,"dy":0.0017,"dx":0.0017,"nx":28,"ny":28,"refTime":"2025-07-10T09:00:00:Z","depth":0,"parameterNumber":3,"parameterNumberName":"V-component_of_WINDS"},"data":[0,0,0,0,0,0,0,0,0,0,0,0,0,0,0,0,0,0,0,0,0,0,0,0,0,0,0,0,0,0,0,0,0,0,0,0,0,0,0,0,0,0,0,0,0,0,0,0,0,0,0,0,0,0,0,0,0,0,0.6294,0.6295,0,0.6349,0.6349,0.635,0.6358,0.6358,0.6357,0.6357,0.6413,0.6414,0.6416,0,0,0,0,0,0,0,0,0,0,0,0,0,0.6195,0.6197,0.6294,0.6295,0.6296,0.6349,0.6349,0.635,0.6358,0.6358,0.6357,0.6356,0.6412,0.6414,0.6417,0,0,0,0,0,0,0,0,0,0,0,0,0,0.6243,0.6197,0.6294,0.6306,0.6308,0.6349,0.6349,0.635,0.6358,0.6358,0.6357,0.6356,0.6411,0.6414,0.6417,0.645,0,0,0.6426,0.6427,0,0,0,0,0,0,0,0,0.624,0.6246,0.6304,0.6305,0.6307,0.6346,0.6335,0.6384,0.6358,0.6339,0.6357,0.6356,0.6391,0.6395,0.6407,0.6452,0.6455,0.6426,0.6428,0.6429,0.643,0,0,0,0,0,0,0,0.6237,0.6244,0.6316,0.6304,0.6307,0.6308,0.6314,0.6344,0.6369,0.6341,0.6341,0.6348,0.6392,0.6405,0.6409,0.6456,0.6426,0.6429,0.643,0.6432,0.6527,0.6528,0,0,0,0,0,0,0.6231,0.6241,0.6314,0.6318,0.6271,0.631,0.6317,0.6334,0.6368,0.6373,0.6348,0.6348,0.64,0.6405,0.6411,0.645,0.6429,0.6432,0.6433,0.6526,0.6527,0.6528,0,0,0,0,0,0,0.6229,0.6238,0.6312,0.628,0.6289,0.6313,0.6332,0.6336,0.6348,0.6374,0.6378,0.6357,0.64,0.6407,0.6439,0.6452,0.6433,0.6436,0.6525,0.6527,0.6528,0.6529,0,0,0,0,0,0,0.6226,0.6237,0.625,0.628,0.6291,0.634,0.6333,0.6337,0.6353,0.6353,0.6383,0.6387,0.6399,0.6435,0.6442,0.6455,0.6438,0.6524,0.6526,0.6527,0.6528,0.653,0.6532,0,0,0,0,0,0.6223,0.6249,0.6251,0.626,0.6308,0.6341,0.6347,0.6361,0.6354,0.6368,0.6383,0.6387,0.6449,0.6438,0.6447,0.6461,0.6524,0.6526,0.6527,0.6527,0.6529,0.6532,0,0,0,0,0,0,0.6222,0.6253,0.6256,0.6293,0.6314,0.6342,0.636,0.6363,0.6387,0.6386,0.6401,0.6408,0.6439,0.6453,0.6441,0.6493,0.6486,0.6489,0.6483,0.6485,0.6487,0.6483,0.6441,0,0,0,0,0,0.6225,0.625,0.6276,0.6306,0.6317,0.6336,0.6351,0.6359,0.6382,0.6391,0.6409,0.6431,0.6455,0.6471,0.6495,0.653,0.6535,0.6543,0.6545,0.6547,0.6549,0.6566,0.6569,0.6534,0.6534,0.6534,0,0,0.6234,0.6255,0.6269,0.6306,0.6324,0.6348,0.6344,0.637,0.6388,0.6395,0.6427,0.644,0.6465,0.6498,0.6514,0.6511,0.656,0.6549,0.655,0.6552,0.6568,0.6572,0.6575,0.6535,0.6535,0.6535,0,0,0.6262,0.6281,0.6306,0.6323,0.6349,0.6361,0.6367,0.6395,0.6404,0.6436,0.6441,0.6462,0.6504,0.6521,0.6535,0.6565,0.6568,0.6572,0.6583,0.6599,0.6602,0.6604,0.6613,0.6617,0.6575,0.6575,0.6575,0,0.6269,0.6306,0.6319,0.6344,0.636,0.6366,0.6392,0.6407,0.644,0.645,0.6446,0.6497,0.6515,0.655,0.6557,0.6569,0.6575,0.6569,0.66,0.6603,0.6605,0.6614,0.6618,0.6575,0.6575,0.6575,0.6575,0,0.6313,0.6338,0.6356,0.6386,0.6403,0.6428,0.6444,0.646,0.6465,0.6478,0.6508,0.6529,0.6556,0.6565,0.6572,0.6601,0.6598,0.6597,0.659,0.6609,0.6617,0.6621,0.6576,0.6576,0.6576,0.6576,0,0,0.6343,0.6378,0.6384,0.6397,0.6425,0.6444,0.6468,0.6494,0.6506,0.6528,0.6548,0.6582,0.658,0.6596,0.6604,0.6618,0.6638,0.6615,0.6616,0.6617,0.667,0.667,0.6674,0.664,0.6641,0.6642,0.6667,0,0.6373,0.6417,0.6428,0.6465,0.6487,0.6493,0.6513,0.6532,0.6543,0.6563,0.6576,0.6599,0.6596,0.6605,0.6619,0.6633,0.6649,0.6631,0.6658,0.6659,0.6651,0.6679,0.6679,0.6703,0.6671,0.6671,0.6672,0,0.6415,0.6435,0.6475,0.6497,0.6507,0.6525,0.6548,0.6568,0.6588,0.6595,0.6611,0.6617,0.6641,0.6633,0.6665,0.6653,0.6664,0.6672,0.6673,0.6676,0.6666,0.6681,0.6711,0.6714,0.6677,0.6677,0.6677,0,0.643,0.6469,0.6496,0.6507,0.6534,0.6547,0.6559,0.6578,0.6592,0.6612,0.6621,0.6644,0.6656,0.6673,0.6684,0.6677,0.6714,0.6708,0.672,0.672,0.6728,0.6727,0.6759,0.6736,0.6736,0.6736,0.6736,0,0.6462,0.6486,0.6503,0.652,0.6546,0.6557,0.6582,0.6594,0.6611,0.6629,0.6635,0.6652,0.6666,0.6685,0.6694,0.6718,0.6724,0.6729,0.6731,0.6728,0.6728,0.6736,0.6734,0.6737,0.6737,0.6737,0.6736,0,0.6485,0.6498,0.6528,0.655,0.6557,0.6574,0.6593,0.6609,0.662,0.6643,0.6649,0.6665,0.6687,0.67,0.6728,0.6733,0.676,0.6761,0.6753,0.6754,0.6765,0.6763,0.6802,0.6807,0.6782,0.6782,0.6783,0,0.6504,0.6522,0.6545,0.6558,0.657,0.659,0.6604,0.6615,0.6629,0.6652,0.6665,0.6686,0.6705,0.6739,0.6753,0.6774,0.6775,0.6787,0.6779,0.6774,0.6774,0.6772,0.6773,0.6789,0.6789,0.6789,0.679,0,0.6536,0.6541,0.656,0.6582,0.6597,0.6615,0.6632,0.6642,0.6656,0.6671,0.6693,0.6707,0.6734,0.6755,0.6776,0.6787,0.679,0.6792,0.6796,0.6793,0.6787,0.6789,0.6756,0.6791,0.6791,0.6791,0.6791,0.6791,0.6556,0.6571,0.659,0.6611,0.6625,0.664,0.6655,0.6667,0.6686,0.6708,0.6714,0.6736,0.6754,0.6782,0.6794,0.6811,0.6809,0.6815,0.6816,0.6817,0.6817,0.6784,0.6815,0.6815,0.6815,0.6815,0.6815,0,0.6587,0.6599,0.6618,0.6641,0.6657,0.6658,0.6676,0.6689,0.6709,0.6725,0.6742,0.6766,0.6786,0.6801,0.6821,0.6831,0.6833,0.6836,0.6835,0.6837,0.6818,0.6812,0.6834,0.6834,0.6834,0.6834,0.6834,0.6834,0.6605,0.663,0.6637,0.6668,0.6679,0.6701,0.6712,0.6725,0.6737,0.6764,0.678,0.6789,0.6804,0.6825,0.6842,0.6846,0.6853,0.6855,0.6859,0.6841,0.6839,0.6837,0.6831,0.6857,0.6857,0.6877,0.6877,0.6877]}]]